Showing default

FLOCK 4G 25, 62646

Orbit data source: Space-Track

FLOCK 4G 25, 62646 is a payload satellite owned by Planet (US) in SSO that was launched on Tue, 14 Jan 2025 UTC via an FALCON 9 launch vehicle from the Air Force Western Test Range (AFWTR). Payload-class satellites include a variety of spacecraft equipped with specific instruments for various scientific and technological missions. These include communications satellites like Starlink; space stations such as the ISS; scientific satellites like the Hubble; Earth observation satellites from companies like Planet Labs, Umbra, and HawkEye 360; GPS; miniature CubeSats for education and research; and military/defense satellites.

Loading next visibility...
Identifier
62646, 2025-009AP
Orbit
SSO
Last TLE update
13 hours ago
Origin
Manufacturer
Planet
Mission
Operational Commercial Imaging
Bus & Motor
CUBESAT 3U, Unknown motor
Mass
5.7 kg wet, 5.7 kg dry
Launch date (UTC)
2025-01-14 (4 months ago)
Launch vehicle
FALCON 9
Launch site
Air Force Western Test Range (AFWTR)
Object type
Payload
Rocket body
Debris
Shape & HBR
Box + 2 Pan, 0.3 m
Radar Cross Section
0.035 m², Medium (>0.1 m² and < 1m²)

Expand to show TLE details & history

TLE from 13 hours ago
0 FLOCK 4G 25
1 62646U 25009AP  25128.73339285  .00007347  00000-0  33825-3 0  9993
2 62646  97.4321 209.6738 0000688 255.4460 104.6699 15.20602362 17296
Epoch: 2025-05-08T17:36Z
Definitive object data (Epoch: 2025-05-08T17:36:05.142Z)
Latitude
-0.00002°
Longitude
78.85273°
Altitude
507.233 km
Speed
7.61 km/s
True Right ascension
13h 58m 41s
True Declination
0° 00' 00"
Sunlit
Object was in full shadow at TLE epoch
Visualization TLE readout
Latitude
55.22502°
Longitude
-89.83802°
Altitude
513.501 km
Speed
7.612 km/s
Apparent Right ascension
02h 50m 27s
Apparent Declination
10° 03' 20"
Sunlit
Object is in daylight
Visualization observer readout
Local Sidereal Time
14:55:42
Azimuth
1.687° NNE
Elevation
-40.013°
Doppler factor
1
Orbital elements
Apogee altitude
501.462 km
Perigee altitude
500.515 km
Semi-major axis
6,879.126 km
Eccentricity
0.0000688
Inclination
97.4321°
RAAN
209.6738°
Arg. of periapsis
255.446°
True anomaly
104.67753°
Mean anomaly
104.6699°
Eccentric anomaly
104.67371°
Mean motion
3.80402 °/min
BSTAR
0.00033825
Orbital period
94.64 mins
Loading maneuver chart data...
Loading SW <> Apogee altitude chart data...
Loading historical data...
Loading historical data...
Loading historical data...
Loading historical data...
Loading historical data...
Loading historical data...
Loading historical data...

FLOCK 4G 25 Visibility forecast

Observer location: undefined°, undefined°

Span
Click to sort rows by Start time (UTC) header in descending order
Start Az.
Max El. time (UTC)
Max El. Az.
Max El.
End time (UTC)
End Az.
6 mins2025-05-09 17:51:49.171Z31.572° NE2025-05-09 17:54:49.171Z118.375° SE33.568°2025-05-09 17:57:49.171Z171.5° S
5 mins2025-05-10 06:03:49.171Z217.37° SW2025-05-10 06:05:49.171Z264.037° W24.269°2025-05-10 06:08:49.171Z321.748° NNW
|